Regional Weather Roundup
Issued by NWS Green Bay, WI

Home | Current Version | Previous Version | Graphics & Text | Print | Product List | Glossary Off
Versions: 1 2 3 4 5 6 7 8 9 10 11 12 13 14 15 16 17 18 19 20 21 22 23 24 25 26 27 28 29 30 31 32 33 34 35 36 37 38 39 40 41 42 43 44 45 46 47 48 49 50

000
ASUS43 KGRB 231011
RWRGRB

NORTH-CENTRAL AND NORTHEAST WISCONSIN REGIONAL WEATHER ROUNDUP
NATIONAL WEATHER SERVICE GREEN BAY WI
500 AM CDT SAT SEP 23 2017

WIZ005-009-010>012-018-019-231100-
NORTH CENTRAL WISCONSIN

CITY           SKY/WX    TMP DP  RH WIND       PRES   REMARKS
IRONWOOD       CLEAR     75  67  76 SW13G21   29.93R
MANITOWISH WTR NOT AVBL
ARBOR VITAE    CLOUDY    72  69  90 S3        30.00R
EAGLE RIVER    CLEAR     64  64 100 CALM      30.01R
LAND O LAKES   CLEAR     66  65  97 S6        30.01S
RHINELANDER    CLEAR     69  66  90 SW5       30.02R
PHILLIPS       PTCLDY    70  67  91 S6        29.98R
ANTIGO         CLEAR     64  62  95 S5        30.04R
TOMAHAWK       PTCLDY    64  62  96 CALM      30.02R
MERRILL        CLOUDY    69  66  88 S5        30.02R
$$

WIZ013-073-231100-
NORTHEAST WISCONSIN

CITY           SKY/WX    TMP DP  RH WIND       PRES   REMARKS
IRON MOUNTAIN  FOG       59  57  93 CALM      29.98S VSB 1/2
MARINETTE      CLEAR     69  65  86 SW6       30.00R
OCONTO         CLEAR     62  62  97 CALM      30.00S
$$

WIZ017-030-035>037-045-231100-
CENTRAL WISCONSIN

CITY           SKY/WX    TMP DP  RH WIND       PRES   REMARKS
MEDFORD        PTCLDY    63  62  96 SE5       30.01R
WAUSAU         CLOUDY    71  64  78 S3        30.00R
MOSINEE        CLOUDY    66  63  88 SE5       30.03R
MARSHFIELD     PTCLDY    68  62  81 S5        30.01R
WISC RAPIDS    MOCLDY    72  64  76 S7        30.01R
STEVENS POINT  PTCLDY    69  64  82 S7        30.01S
WAUPACA        CLEAR     66  65  96 CALM      30.02R
SHAWANO        CLEAR     70  65  84 CALM      30.01R
CLINTONVILLE   CLEAR     66  63  88 CALM      30.02R
WAUTOMA        CLEAR     62  61  96 CALM      30.03R
$$

WIZ038-039-048-051-231100-
FOX VALLEY

CITY           SKY/WX    TMP DP  RH WIND       PRES   REMARKS
NWS GREEN BAY  CLEAR     67  65  93 S3        30.01R
APPLETON       CLEAR     70  59  68 S6        30.01S
OSHKOSH        CLEAR     70  64  81 S8        30.02R
FOND DU LAC    CLEAR     72  63  73 S6        30.03R
$$

WIZ022-050-052-231100-
EAST CENTRAL WISCONSIN

CITY           SKY/WX    TMP DP  RH WIND       PRES   REMARKS
EPHRAIM        FAIR      74  63  67 SW3       29.99S
WASHINGTON ISL FAIR      66  64  93 S5        29.99R
STURGEON BAY   CLEAR     72  64  76 S7        30.02R
MANITOWOC      CLEAR     73  65  75 SW3       30.03R
SHEBOYGAN      CLEAR     65  65 100 S5        30.03R
$$

LMZ563-521-522-541>543-231100-
LAKESHORE

STATION/POSITION TIME  TEMP    WIND        PRES    VSBY  WAVE
                       AIR SEA DIR/SP/G                  HT/PER
                 (UTC) (F)     (DEG/KT/KT) (MB)    (MI)  (FT/S)
SHEBOYGAN LKSHOR 1000   72     190/  3/  3 1016.4R
KEWAUNEE LKSHORE 0948   74     230/  3/  7 1015.5R
NORTHPORT PIER   0940   67     160/  2/  5 1015.6R
N MID LAKE BUOY  0950   69 66  190/ 10/ 12 1016.2R         2/ 4
S GREEN BAY BUOY 1000   69 67  200/  6/  6 1015.9R
SISTER BAY LKSHO 1004   76     210/  6/  8   N/A
MENOMINEE LKSHOR 0948   72     190/  6/  9 1015.4R
$$




USA.gov is the U.S. government's official web portal to all federal, state and local government web resources and services.